DLH2HH EDDF-EDDB

Flight info

Callsign DLH2HH
Flight time 0h 46m
Altitude 31000
Route TOBAK3W/25C TOBAK N858 SWALM T201 TAMEB T278 KLF KLF1R
Aircraft A321/M-SDE3FGHIRWY/LB1

Departure

Time 2026-04-18 09:35
Airport Frankfurt Main Airport (EDDF)

Arrival

Time 2026-04-18 10:21
Airport Berlin Brandenburg Airport (EDDB)
Time Latitude Longitude Altitude Speed Heading
2026-04-18 08:44 50.04559 8.56303 353 ft 0 kts 40°
2026-04-18 09:20 50.04546 8.56287 358 ft 4 kts 26°
2026-04-18 09:21 50.04522 8.56280 356 ft 4 kts 338°
2026-04-18 09:21 50.04504 8.56304 355 ft 4 kts 288°
2026-04-18 09:21 50.04502 8.56336 354 ft 1 kts 250°
2026-04-18 09:27 50.04496 8.56308 351 ft 5 kts 251°
2026-04-18 09:27 50.04484 8.56252 355 ft 7 kts 251°
2026-04-18 09:27 50.04466 8.56177 354 ft 9 kts 248°
2026-04-18 09:27 50.04442 8.56079 347 ft 10 kts 247°
2026-04-18 09:28 50.04383 8.56036 355 ft 10 kts 169°
2026-04-18 09:28 50.04314 8.56078 349 ft 11 kts 146°
2026-04-18 09:28 50.04273 8.56180 356 ft 11 kts 133°
2026-04-18 09:28 50.04219 8.56219 351 ft 6 kts 159°
2026-04-18 09:29 50.04178 8.56244 350 ft 7 kts 159°
2026-04-18 09:29 50.04139 8.56290 350 ft 8 kts 111°
2026-04-18 09:29 50.04151 8.56379 350 ft 9 kts 68°
2026-04-18 09:29 50.04175 8.56476 352 ft 10 kts 70°
2026-04-18 09:30 50.04200 8.56583 353 ft 11 kts 70°
2026-04-18 09:30 50.04228 8.56700 353 ft 12 kts 70°
2026-04-18 09:30 50.04258 8.56827 352 ft 13 kts 70°
2026-04-18 09:30 50.04290 8.56964 354 ft 14 kts 70°
2026-04-18 09:31 50.04324 8.57106 348 ft 15 kts 70°
2026-04-18 09:31 50.04360 8.57259 353 ft 15 kts 69°
2026-04-18 09:31 50.04399 8.57419 355 ft 16 kts 70°
2026-04-18 09:31 50.04423 8.57521 349 ft 9 kts 70°
2026-04-18 09:32 50.04447 8.57629 354 ft 13 kts 71°
2026-04-18 09:32 50.04479 8.57764 351 ft 14 kts 69°
2026-04-18 09:32 50.04513 8.57907 350 ft 15 kts 69°
2026-04-18 09:32 50.04551 8.58062 350 ft 16 kts 69°
2026-04-18 09:33 50.04591 8.58226 353 ft 16 kts 69°
2026-04-18 09:33 50.04633 8.58396 349 ft 17 kts 69°
2026-04-18 09:33 50.04648 8.58527 348 ft 11 kts 108°
2026-04-18 09:33 50.04583 8.58596 350 ft 12 kts 161°
2026-04-18 09:34 50.04500 8.58604 347 ft 12 kts 204°
2026-04-18 09:34 50.04459 8.58476 353 ft 21 kts 249°
2026-04-18 09:34 50.04321 8.57888 352 ft 93 kts 250°
2026-04-18 09:34 50.04025 8.56617 357 ft 151 kts 252°
2026-04-18 09:35 50.03635 8.54987 734 ft 168 kts 249°
2026-04-18 09:35 50.03193 8.53245 1306 ft 178 kts 250°
2026-04-18 09:35 50.02741 8.51360 1586 ft 198 kts 251°
2026-04-18 09:35 50.01995 8.49492 2050 ft 208 kts 227°
2026-04-18 09:36 50.00779 8.48258 2598 ft 212 kts 201°
2026-04-18 09:36 49.99331 8.47808 3206 ft 212 kts 189°
2026-04-18 09:36 49.97871 8.47487 3825 ft 211 kts 189°
2026-04-18 09:36 49.96436 8.47169 4442 ft 210 kts 191°
2026-04-18 09:37 49.94993 8.46593 4818 ft 223 kts 198°
2026-04-18 09:37 49.93426 8.45878 5160 ft 240 kts 198°
2026-04-18 09:37 49.91920 8.44761 5816 ft 242 kts 220°
2026-04-18 09:37 49.90902 8.42689 6515 ft 245 kts 247°
2026-04-18 09:38 49.90627 8.40111 7173 ft 250 kts 275°
2026-04-18 09:38 49.91193 8.37549 7840 ft 256 kts 303°
2026-04-18 09:38 49.92521 8.35697 8497 ft 262 kts 332°
2026-04-18 09:38 49.94240 8.34521 8886 ft 279 kts 336°
2026-04-18 09:39 49.96073 8.33337 9431 ft 287 kts 336°
2026-04-18 09:39 49.97906 8.32163 10090 ft 290 kts 336°
2026-04-18 09:39 49.99807 8.30939 10475 ft 303 kts 336°
2026-04-18 09:39 50.01863 8.29754 10602 ft 325 kts 343°
2026-04-18 09:40 50.04128 8.29106 10725 ft 346 kts 354°
2026-04-18 09:40 50.06608 8.29152 10872 ft 365 kts
2026-04-18 09:40 50.09130 8.30030 11297 ft 373 kts 17°
2026-04-18 09:40 50.11576 8.31317 11826 ft 376 kts 17°
2026-04-18 09:41 50.14080 8.32626 12389 ft 379 kts 16°
2026-04-18 09:41 50.16568 8.33921 12934 ft 381 kts 16°
2026-04-18 09:41 50.19099 8.35236 13474 ft 384 kts 16°
2026-04-18 09:41 50.21648 8.36568 14006 ft 387 kts 16°
2026-04-18 09:42 50.24188 8.37908 14475 ft 390 kts 16°
2026-04-18 09:42 50.26774 8.39301 14948 ft 393 kts 18°
2026-04-18 09:42 50.29254 8.41202 15400 ft 400 kts 29°
2026-04-18 09:42 50.31510 8.43806 15847 ft 405 kts 39°
2026-04-18 09:43 50.33599 8.46713 16275 ft 409 kts 39°
2026-04-18 09:43 50.35745 8.49702 16726 ft 412 kts 39°
2026-04-18 09:43 50.37876 8.52671 17135 ft 415 kts 39°
2026-04-18 09:43 50.40043 8.55685 17551 ft 417 kts 39°
2026-04-18 09:44 50.42227 8.58723 17976 ft 420 kts 39°
2026-04-18 09:44 50.44432 8.61794 18392 ft 423 kts 39°
2026-04-18 09:44 50.46646 8.64820 18754 ft 426 kts 38°
2026-04-18 09:44 50.48148 8.66820 18996 ft 428 kts 38°
2026-04-18 09:45 50.50450 8.69833 19381 ft 430 kts 37°
2026-04-18 09:45 50.53515 8.73807 19887 ft 432 kts 37°
2026-04-18 09:45 50.55792 8.76935 20267 ft 436 kts 43°
2026-04-18 09:45 50.57144 8.79309 20519 ft 440 kts 50°
2026-04-18 09:46 50.58851 8.83323 20887 ft 444 kts 60°
2026-04-18 09:46 50.60333 8.87622 21259 ft 446 kts 60°
2026-04-18 09:46 50.61823 8.91945 21625 ft 449 kts 60°
2026-04-18 09:46 50.63308 8.96236 21992 ft 451 kts 60°
2026-04-18 09:47 50.64816 9.00577 22350 ft 453 kts 60°
2026-04-18 09:47 50.66337 9.04974 22701 ft 455 kts 62°
2026-04-18 09:47 50.67467 9.09654 23036 ft 459 kts 74°
2026-04-18 09:47 50.68312 9.14467 23377 ft 461 kts 74°
2026-04-18 09:48 50.69164 9.19367 23715 ft 463 kts 74°
2026-04-18 09:48 50.70014 9.24305 24013 ft 466 kts 74°
2026-04-18 09:48 50.70852 9.29209 24297 ft 468 kts 75°
2026-04-18 09:48 50.71697 9.34174 24589 ft 470 kts 75°
2026-04-18 09:49 50.72546 9.39176 24878 ft 471 kts 74°
2026-04-18 09:49 50.73397 9.44201 25193 ft 472 kts 74°
2026-04-18 09:49 50.74241 9.49180 25491 ft 474 kts 74°
2026-04-18 09:49 50.75094 9.54218 25774 ft 476 kts 74°
2026-04-18 09:50 50.75943 9.59257 26047 ft 478 kts 74°
2026-04-18 09:50 50.76800 9.64384 26318 ft 480 kts 75°
2026-04-18 09:50 50.77656 9.69515 26571 ft 482 kts 75°
2026-04-18 09:50 50.78504 9.74595 26816 ft 484 kts 74°
2026-04-18 09:51 50.79365 9.79763 27051 ft 486 kts 75°
2026-04-18 09:51 50.80223 9.84938 27279 ft 487 kts 75°
2026-04-18 09:51 50.81077 9.90102 27494 ft 489 kts 75°
2026-04-18 09:51 50.81938 9.95332 27742 ft 489 kts 75°
2026-04-18 09:52 50.82785 10.00504 28001 ft 489 kts 75°
2026-04-18 09:52 50.83637 10.05730 28297 ft 488 kts 75°
2026-04-18 09:52 50.84488 10.10963 28589 ft 488 kts 75°
2026-04-18 09:52 50.85321 10.16089 28867 ft 487 kts 75°
2026-04-18 09:53 50.86167 10.21291 29147 ft 487 kts 75°
2026-04-18 09:53 50.87015 10.26515 29430 ft 487 kts 75°
2026-04-18 09:53 50.87844 10.31652 29721 ft 486 kts 75°
2026-04-18 09:53 50.88680 10.36865 30007 ft 486 kts 75°
2026-04-18 09:54 50.89511 10.42054 30275 ft 486 kts 75°
2026-04-18 09:54 50.90335 10.47192 30528 ft 485 kts 75°
2026-04-18 09:54 50.91165 10.52379 30778 ft 484 kts 75°
2026-04-18 09:54 50.91988 10.57560 31018 ft 484 kts 75°
2026-04-18 09:55 50.92799 10.62693 31156 ft 483 kts 75°
2026-04-18 09:55 50.93610 10.67846 31189 ft 479 kts 75°
2026-04-18 09:55 50.95207 10.78042 31191 ft 477 kts 75°
2026-04-18 09:56 50.96813 10.88289 31192 ft 477 kts 75°
2026-04-18 09:56 50.98392 10.98456 31193 ft 476 kts 75°
2026-04-18 09:57 50.99965 11.08690 31190 ft 476 kts 75°
2026-04-18 09:57 51.01521 11.18881 31189 ft 476 kts 75°
2026-04-18 09:58 51.03083 11.29127 31202 ft 476 kts 75°
2026-04-18 09:58 51.04625 11.39327 31197 ft 476 kts 75°
2026-04-18 09:59 51.06422 11.49390 31194 ft 473 kts 65°
2026-04-18 09:59 51.07852 11.54102 31033 ft 469 kts 60°
2026-04-18 10:00 51.11654 11.62332 29555 ft 461 kts 37°
2026-04-18 10:00 51.14198 11.65478 28975 ft 464 kts 35°
2026-04-18 10:00 51.16769 11.68637 28393 ft 465 kts 35°
2026-04-18 10:00 51.19310 11.71762 27839 ft 466 kts 35°
2026-04-18 10:01 51.21888 11.74927 27297 ft 467 kts 36°
2026-04-18 10:01 51.24472 11.78102 26756 ft 468 kts 36°
2026-04-18 10:01 51.27032 11.81252 26227 ft 468 kts 36°
2026-04-18 10:01 51.29620 11.84442 25705 ft 469 kts 36°
2026-04-18 10:02 51.32204 11.87632 25192 ft 467 kts 36°
2026-04-18 10:02 51.34774 11.90810 24693 ft 464 kts 36°
2026-04-18 10:02 51.37315 11.93957 24196 ft 460 kts 36°
2026-04-18 10:02 51.39810 11.97055 23712 ft 457 kts 36°
2026-04-18 10:03 51.42324 12.00178 23132 ft 453 kts 36°
2026-04-18 10:03 51.44819 12.03281 22574 ft 450 kts 36°
2026-04-18 10:03 51.47291 12.06356 22012 ft 447 kts 36°
2026-04-18 10:03 51.49717 12.09377 21476 ft 444 kts 36°
2026-04-18 10:04 51.52146 12.12407 20927 ft 433 kts 36°
2026-04-18 10:04 51.54473 12.15316 20407 ft 415 kts 36°
2026-04-18 10:04 51.56670 12.18073 20172 ft 392 kts 36°
2026-04-18 10:04 51.58784 12.20729 20182 ft 380 kts 36°
2026-04-18 10:05 51.60872 12.23348 20186 ft 380 kts 36°
2026-04-18 10:05 51.62956 12.25963 20186 ft 379 kts 36°
2026-04-18 10:05 51.65009 12.28545 20195 ft 379 kts 36°
2026-04-18 10:05 51.67095 12.31166 20188 ft 379 kts 36°
2026-04-18 10:06 51.69177 12.33787 20187 ft 379 kts 36°
2026-04-18 10:06 51.71259 12.36417 20187 ft 379 kts 36°
2026-04-18 10:06 51.73312 12.39018 20028 ft 379 kts 37°
2026-04-18 10:06 51.75401 12.41665 19555 ft 377 kts 36°
2026-04-18 10:07 51.77465 12.44282 19073 ft 374 kts 37°
2026-04-18 10:07 51.79487 12.46846 18606 ft 372 kts 36°
2026-04-18 10:07 51.81524 12.49429 18086 ft 370 kts 37°
2026-04-18 10:07 51.83545 12.51996 17549 ft 368 kts 37°
2026-04-18 10:08 51.85549 12.54544 17033 ft 365 kts 36°
2026-04-18 10:08 51.87524 12.57054 16524 ft 363 kts 36°
2026-04-18 10:08 51.89505 12.59583 16013 ft 360 kts 37°
2026-04-18 10:08 51.91445 12.62066 15519 ft 358 kts 37°
2026-04-18 10:09 51.93399 12.64567 15017 ft 355 kts 37°
2026-04-18 10:09 51.95342 12.67057 14530 ft 353 kts 37°
2026-04-18 10:09 51.97241 12.69491 14062 ft 350 kts 37°
2026-04-18 10:09 51.99146 12.71935 13534 ft 347 kts 37°
2026-04-18 10:10 52.01038 12.74365 13002 ft 343 kts 37°
2026-04-18 10:10 52.02884 12.76742 12469 ft 331 kts 37°
2026-04-18 10:10 52.04633 12.78997 11961 ft 318 kts 37°
2026-04-18 10:10 52.06344 12.81204 11450 ft 306 kts 37°
2026-04-18 10:11 52.07982 12.83318 10959 ft 293 kts 37°
2026-04-18 10:11 52.09561 12.85359 10471 ft 286 kts 37°
2026-04-18 10:11 52.11100 12.87349 9991 ft 285 kts 36°
2026-04-18 10:11 52.12653 12.89360 9454 ft 281 kts 36°
2026-04-18 10:12 52.14160 12.91314 8908 ft 272 kts 36°
2026-04-18 10:12 52.15606 12.93188 8403 ft 264 kts 37°
2026-04-18 10:12 52.17018 12.95013 7917 ft 253 kts 35°
2026-04-18 10:12 52.18557 12.96176 7413 ft 240 kts
2026-04-18 10:13 52.20158 12.96043 6928 ft 231 kts 348°
2026-04-18 10:13 52.21705 12.95527 6444 ft 222 kts 348°
2026-04-18 10:13 52.23214 12.95747 5920 ft 219 kts 20°
2026-04-18 10:13 52.24379 12.97292 5488 ft 219 kts 55°
2026-04-18 10:14 52.25005 12.99554 5197 ft 218 kts 68°
2026-04-18 10:14 52.25551 13.01840 4977 ft 217 kts 68°
2026-04-18 10:14 52.26091 13.04074 4910 ft 206 kts 68°
2026-04-18 10:14 52.26600 13.06168 4842 ft 189 kts 68°
2026-04-18 10:15 52.27066 13.08086 4716 ft 179 kts 68°
2026-04-18 10:15 52.27512 13.09950 4609 ft 175 kts 68°
2026-04-18 10:15 52.27984 13.11786 4491 ft 175 kts 66°
2026-04-18 10:15 52.28443 13.13621 4377 ft 174 kts 68°
2026-04-18 10:16 52.28875 13.15443 4259 ft 174 kts 69°
2026-04-18 10:16 52.29286 13.17290 4051 ft 172 kts 70°
2026-04-18 10:16 52.29719 13.19120 3926 ft 172 kts 68°
2026-04-18 10:16 52.30165 13.20912 3821 ft 172 kts 68°
2026-04-18 10:17 52.30627 13.22726 3575 ft 172 kts 68°
2026-04-18 10:17 52.31051 13.24520 3305 ft 170 kts 71°
2026-04-18 10:17 52.31457 13.26340 2955 ft 170 kts 71°
2026-04-18 10:17 52.31871 13.28145 2678 ft 169 kts 69°
2026-04-18 10:18 52.32331 13.29883 2572 ft 169 kts 68°
2026-04-18 10:18 52.32788 13.31641 2357 ft 167 kts 71°
2026-04-18 10:18 52.33195 13.33397 2206 ft 161 kts 73°
2026-04-18 10:18 52.33561 13.35089 1993 ft 156 kts 71°
2026-04-18 10:19 52.33958 13.36688 1716 ft 152 kts 70°
2026-04-18 10:19 52.34349 13.38275 1507 ft 149 kts 72°
2026-04-18 10:19 52.34716 13.39846 1321 ft 149 kts 71°
2026-04-18 10:19 52.35087 13.41440 1096 ft 148 kts 72°
2026-04-18 10:20 52.35467 13.42987 879 ft 146 kts 69°
2026-04-18 10:20 52.35837 13.44540 685 ft 144 kts 71°
2026-04-18 10:20 52.36196 13.46069 482 ft 144 kts 71°
2026-04-18 10:20 52.36557 13.47604 314 ft 143 kts 71°
2026-04-18 10:21 52.36913 13.49115 159 ft 136 kts 70°
2026-04-18 10:21 52.37203 13.50348 155 ft 93 kts 68°
2026-04-18 10:21 52.37355 13.50985 155 ft 35 kts 69°
2026-04-18 10:21 52.37423 13.51278 155 ft 15 kts 71°
2026-04-18 10:22 52.37447 13.51446 155 ft 16 kts 84°
2026-04-18 10:22 52.37450 13.51628 155 ft 16 kts 95°
2026-04-18 10:22 52.37437 13.51789 155 ft 10 kts 99°
2026-04-18 10:22 52.37421 13.51904 155 ft 11 kts 116°
2026-04-18 10:23 52.37356 13.51935 155 ft 11 kts 207°
2026-04-18 10:23 52.37319 13.51826 155 ft 12 kts 248°
2026-04-18 10:23 52.37288 13.51695 155 ft 13 kts 249°
2026-04-18 10:23 52.37255 13.51551 155 ft 14 kts 249°
2026-04-18 10:24 52.37220 13.51398 155 ft 15 kts 249°
2026-04-18 10:24 52.37180 13.51230 155 ft 16 kts 244°
2026-04-18 10:24 52.37138 13.51054 155 ft 17 kts 249°
2026-04-18 10:24 52.37093 13.50864 155 ft 18 kts 249°
2026-04-18 10:25 52.37048 13.50666 155 ft 19 kts 249°
2026-04-18 10:25 52.36996 13.50456 155 ft 20 kts 248°
2026-04-18 10:25 52.36950 13.50259 155 ft 13 kts 249°
2026-04-18 10:25 52.36903 13.50136 155 ft 13 kts 206°
2026-04-18 10:26 52.36815 13.50165 155 ft 14 kts 158°
2026-04-18 10:26 52.36716 13.50167 155 ft 15 kts 187°
2026-04-18 10:26 52.36616 13.50210 155 ft 7 kts 158°
2026-04-18 10:26 52.36577 13.50245 155 ft 6 kts 124°
2026-04-18 10:27 52.36585 13.50322 155 ft 8 kts 70°
2026-04-18 10:27 52.36601 13.50390 155 ft 1 kts 69°
2026-04-18 10:27 52.36607 13.50415 155 ft 3 kts 68°
2026-04-18 10:27 52.36613 13.50441 155 ft 0 kts 69°
2026-04-18 10:28 52.36613 13.50442 155 ft 0 kts 69°